Location: Peebles
(55.6412°N, 3.1714°W)
Time: 04:36:37
(UTC+01:00)

FENGYUN 1C DEB - Pass Details

Date: 07 July 2022
Orbit: 749 x 887 km, 98.1° (Epoch: 14 August)

Event Time Altitude Azimuth Distance (km) Brightness Sun altitude
Rises 02:00:18 0° 17° (NNE) 3,510 ? -11.2°
Reaches altitude 10° 02:02:50 10° 24° (NNE) 2,561 ? -11.2°
Maximum altitude 02:08:20 46° 97° (E) 1,162 ? -11.0°
Enters shadow 02:13:24 11° 169° (S) 2,392 ? -10.9°
